Location: Buckenweiler
(49.0667°N, 10.2500°E)
Time: 23:29:06
(UTC+00:00)

COSMO-SKYMED 1 - Pass Details

Date: 18 January 2026
Orbit: 577 x 579 km, 97.9° (Epoch: 16 February)

Event Time Altitude Azimuth Distance (km) Brightness Sun altitude
Rises 04:21:05 0° 153° (SSE) 2,789 6.3 -26.4°
Reaches altitude 10° 04:23:15 10° 149° (SSE) 1,894 5.4 -26.1°
Maximum altitude 04:27:16 56° 72° (ENE) 697 3.0 -25.4°
Enters shadow 04:28:13 44° 23° (NNE) 814 3.2 -25.3°
